| time (UTC) | temp F | wind direction | speed MPH | gust MPH | rain 1hr in | rain 24hr in | rain mn in | humidity % | barometer mb |
| 20260507111556 | 45 | 318 | 2.0 | 6.0 | 0.00 | 0.36 | 0.03 | 93 | 1008.7 |
| 20260507111050 | 45 | 0 | 1.0 | 7.0 | 0.00 | 0.36 | 0.03 | 93 | 1008.7 |
| 20260507110550 | 45 | 0 | 1.0 | 7.0 | 0.00 | 0.36 | 0.03 | 93 | 1008.7 |
| 20260507110058 | 45 | 274 | 1.0 | 7.0 | 0.00 | 0.36 | 0.03 | 93 | 1008.7 |
| 20260507105550 | 45 | 314 | 1.0 | 7.0 | 0.00 | 0.36 | 0.03 | 94 | 1008.6 |
| 20260507105053 | 45 | 289 | 2.0 | 7.0 | 0.00 | 0.36 | 0.03 | 94 | 1008.6 |
| 20260507104600 | 45 | 247 | 1.0 | 7.0 | 0.00 | 0.36 | 0.03 | 94 | 1008.6 |
| 20260507104049 | 45 | 323 | 2.0 | 9.0 | 0.00 | 0.36 | 0.03 | 95 | 1008.2 |
| 20260507103551 | 45 | 308 | 2.0 | 9.0 | 0.00 | 0.36 | 0.03 | 95 | 1008.3 |
| 20260507103107 | 45 | 310 | 2.0 | 8.0 | 0.00 | 0.36 | 0.03 | 95 | 1008.2 |
| 20260507102550 | 44 | 343 | 2.0 | 8.0 | 0.00 | 0.36 | 0.03 | 95 | 1008.0 |
| 20260507102050 | 44 | 321 | 1.0 | 9.0 | 0.00 | 0.36 | 0.03 | 95 | 1008.0 |
| 20260507101601 | 44 | 340 | 3.0 | 9.0 | 0.00 | 0.36 | 0.03 | 95 | 1008.0 |
| 20260507101050 | 44 | 306 | 3.0 | 8.0 | 0.00 | 0.36 | 0.03 | 95 | 1008.0 |
| 20260507100550 | 44 | 339 | 3.0 | 8.0 | 0.00 | 0.36 | 0.03 | 95 | 1008.0 |
| 20260507100106 | 44 | 303 | 2.0 | 8.0 | 0.00 | 0.36 | 0.03 | 95 | 1007.9 |
| 20260507095550 | 45 | 301 | 1.0 | 6.0 | 0.00 | 0.36 | 0.03 | 95 | 1008.1 |
| 20260507095049 | 45 | 290 | 2.0 | 6.0 | 0.00 | 0.36 | 0.03 | 95 | 1008.2 |
| 20260507094556 | 45 | 285 | 0.0 | 5.0 | 0.00 | 0.36 | 0.03 | 95 | 1008.1 |
| 20260507094049 | 45 | 3 | 2.0 | 7.0 | 0.00 | 0.36 | 0.03 | 95 | 1008.0 |
| 20260507093549 | 45 | 344 | 2.0 | 7.0 | 0.00 | 0.36 | 0.03 | 95 | 1008.2 |
| 20260507093057 | 45 | 321 | 2.0 | 7.0 | 0.00 | 0.36 | 0.03 | 95 | 1008.5 |
| 20260507092550 | 45 | 271 | 3.0 | 9.0 | 0.00 | 0.36 | 0.03 | 95 | 1008.6 |
| 20260507092049 | 45 | 290 | 2.0 | 10.0 | 0.00 | 0.36 | 0.03 | 95 | 1008.3 |
| 20260507091558 | 45 | 298 | 2.0 | 10.0 | 0.00 | 0.36 | 0.03 | 95 | 1008.4 |
| 20260507091050 | 45 | 312 | 2.0 | 7.0 | 0.00 | 0.36 | 0.03 | 95 | 1008.5 |
| 20260507090551 | 45 | 324 | 2.0 | 7.0 | 0.00 | 0.36 | 0.03 | 95 | 1008.3 |
| 20260507090055 | 45 | 349 | 3.0 | 8.0 | 0.00 | 0.36 | 0.03 | 95 | 1008.2 |
| 20260507085550 | 45 | 290 | 3.0 | 10.0 | 0.00 | 0.36 | 0.03 | 95 | 1008.3 |
| 20260507085050 | 45 | 323 | 2.0 | 10.0 | 0.00 | 0.36 | 0.03 | 95 | 1008.5 |
| 20260507084557 | 45 | 299 | 3.0 | 10.0 | 0.00 | 0.36 | 0.03 | 95 | 1008.8 |
| 20260507084050 | 45 | 308 | 3.0 | 9.0 | 0.00 | 0.36 | 0.03 | 95 | 1008.5 |
| 20260507083550 | 45 | 266 | 1.0 | 7.0 | 0.01 | 0.36 | 0.03 | 95 | 1008.9 |
| 20260507083109 | 45 | 279 | 1.0 | 7.0 | 0.02 | 0.36 | 0.03 | 95 | 1008.6 |
| 20260507082549 | 45 | 324 | 1.0 | 7.0 | 0.02 | 0.36 | 0.03 | 95 | 1008.1 |
| 20260507082052 | 45 | 283 | 2.0 | 7.0 | 0.03 | 0.36 | 0.03 | 95 | 1008.3 |
| 20260507081600 | 45 | 265 | 2.0 | 8.0 | 0.03 | 0.36 | 0.03 | 95 | 1008.3 |
| 20260507081050 | 45 | 302 | 1.0 | 8.0 | 0.03 | 0.36 | 0.03 | 95 | 1008.2 |
| 20260507080550 | 45 | 278 | 3.0 | 8.0 | 0.03 | 0.36 | 0.03 | 95 | 1008.2 |
| 20260507080104 | 45 | 233 | 2.0 | 4.0 | 0.03 | 0.36 | 0.03 | 95 | 1008.2 |
| 20260507075550 | 45 | 0 | 0.0 | 3.0 | 0.03 | 0.36 | 0.03 | 94 | 1007.9 |
| 20260507075050 | 45 | 0 | 0.0 | 2.0 | 0.03 | 0.36 | 0.03 | 94 | 1008.0 |
| 20260507074618 | 45 | 333 | 0.0 | 2.0 | 0.03 | 0.36 | 0.03 | 94 | 1007.7 |
| 20260507074051 | 45 | 333 | 0.0 | 3.0 | 0.03 | 0.36 | 0.03 | 94 | 1007.7 |
| 20260507073550 | 45 | 23 | 0.0 | 4.0 | 0.02 | 0.35 | 0.02 | 94 | 1008.0 |
| 20260507073100 | 45 | 0 | 1.0 | 6.0 | 0.01 | 0.34 | 0.01 | 94 | 1008.1 |
| 20260507072550 | 45 | 315 | 1.0 | 7.0 | 0.01 | 0.34 | 0.01 | 93 | 1008.2 |
| 20260507072118 | 45 | 281 | 2.0 | 7.0 | 0.00 | 0.33 | 0.00 | 93 | 1008.3 |
| 20260507071553 | 46 | 296 | 1.0 | 6.0 | 0.00 | 0.33 | 0.00 | 94 | 1008.3 |
| 20260507071051 | 46 | 270 | 1.0 | 8.0 | 0.00 | 0.33 | 0.00 | 93 | 1008.3 |
| 20260507070550 | 45 | 0 | 4.0 | 8.0 | 0.00 | 0.33 | 0.00 | 93 | 1007.9 |
| 20260507070056 | 46 | 249 | 3.0 | 8.0 | 0.00 | 0.33 | 0.00 | 93 | 1007.8 |
| 20260507065550 | 46 | 281 | 1.0 | 9.0 | 0.00 | 0.33 | 0.00 | 94 | 1007.8 |
| 20260507065049 | 46 | 315 | 1.0 | 9.0 | 0.00 | 0.33 | 0.00 | 94 | 1007.8 |
| 20260507064549 | 46 | 278 | 2.0 | 8.0 | 0.00 | 0.33 | 0.00 | 93 | 1007.6 |
| 20260507064052 | 46 | 249 | 3.0 | 8.0 | 0.00 | 0.33 | 0.00 | 94 | 1007.8 |
| 20260507063550 | 46 | 271 | 2.0 | 8.0 | 0.00 | 0.33 | 0.00 | 94 | 1007.6 |
| 20260507063051 | 46 | 252 | 1.0 | 5.0 | 0.00 | 0.33 | 0.00 | 94 | 1007.6 |
| 20260507062550 | 46 | 267 | 1.0 | 5.0 | 0.00 | 0.33 | 0.00 | 94 | 1007.4 |
| 20260507062050 | 46 | 0 | 2.0 | 7.0 | 0.00 | 0.33 | 0.00 | 94 | 1007.7 |
| 20260507061552 | 46 | 333 | 2.0 | 7.0 | 0.00 | 0.33 | 0.00 | 94 | 1007.8 |
| 20260507061050 | 47 | 287 | 1.0 | 4.0 | 0.00 | 0.33 | 0.00 | 94 | 1007.8 |
| 20260507060549 | 47 | 0 | 1.0 | 7.0 | 0.00 | 0.33 | 0.00 | 94 | 1007.5 |
| 20260507060057 | 47 | 326 | 1.0 | 7.0 | 0.00 | 0.33 | 0.00 | 94 | 1007.7 |
| 20260507055550 | 47 | 0 | 2.0 | 7.0 | 0.00 | 0.33 | 0.00 | 94 | 1007.9 |
| 20260507055050 | 47 | 335 | 1.0 | 6.0 | 0.00 | 0.33 | 0.00 | 94 | 1007.8 |
| 20260507054551 | 47 | 335 | 2.0 | 5.0 | 0.00 | 0.33 | 0.00 | 94 | 1007.9 |
| 20260507054050 | 47 | 283 | 1.0 | 8.0 | 0.00 | 0.33 | 0.00 | 94 | 1007.8 |
| 20260507053550 | 47 | 282 | 2.0 | 8.0 | 0.00 | 0.33 | 0.00 | 94 | 1008.1 |
| 20260507053051 | 48 | 280 | 3.0 | 8.0 | 0.00 | 0.33 | 0.00 | 94 | 1008.3 |
| 20260507052553 | 48 | 288 | 2.0 | 8.0 | 0.00 | 0.33 | 0.00 | 94 | 1008.5 |
| 20260507052050 | 48 | 218 | 3.0 | 8.0 | 0.00 | 0.33 | 0.00 | 94 | 1008.3 |
| 20260507051553 | 48 | 306 | 2.0 | 8.0 | 0.00 | 0.33 | 0.00 | 94 | 1008.3 |
| 20260507051052 | 48 | 247 | 2.0 | 7.0 | 0.00 | 0.33 | 0.00 | 95 | 1008.3 |
| 20260507050552 | 48 | 237 | 2.0 | 6.0 | 0.00 | 0.33 | 0.00 | 95 | 1008.3 |
| 20260507050057 | 48 | 317 | 2.0 | 5.0 | 0.00 | 0.33 | 0.00 | 95 | 1008.2 |
| 20260507045553 | 48 | 326 | 0.0 | 4.0 | 0.00 | 0.33 | 0.00 | 95 | 1008.1 |
| 20260507045049 | 48 | 0 | 0.0 | 8.0 | 0.00 | 0.33 | 0.00 | 95 | 1008.1 |
| 20260507044551 | 49 | 0 | 2.0 | 8.0 | 0.00 | 0.33 | 0.00 | 94 | 1008.0 |
| 20260507044050 | 49 | 236 | 1.0 | 8.0 | 0.00 | 0.33 | 0.00 | 94 | 1008.2 |
| 20260507043550 | 49 | 0 | 3.0 | 8.0 | 0.00 | 0.33 | 0.00 | 94 | 1007.9 |
| 20260507043051 | 49 | 347 | 2.0 | 10.0 | 0.00 | 0.33 | 0.00 | 94 | 1007.8 |
| 20260507042551 | 49 | 278 | 2.0 | 10.0 | 0.00 | 0.33 | 0.00 | 94 | 1007.7 |
| 20260507042050 | 50 | 291 | 2.0 | 13.0 | 0.00 | 0.33 | 0.00 | 94 | 1007.6 |
| 20260507041553 | 50 | 310 | 3.0 | 13.0 | 0.00 | 0.33 | 0.00 | 95 | 1008.0 |
| 20260507041050 | 50 | 0 | 2.0 | 9.0 | 0.00 | 0.33 | 0.00 | 95 | 1007.9 |
| 20260507040552 | 50 | 276 | 3.0 | 9.0 | 0.00 | 0.33 | 0.00 | 95 | 1007.7 |
| 20260507040054 | 50 | 252 | 1.0 | 15.0 | 0.00 | 0.33 | 0.00 | 95 | 1007.8 |
| 20260507035550 | 50 | 0 | 6.0 | 15.0 | 0.00 | 0.33 | 0.33 | 95 | 1007.9 |
| 20260507035050 | 51 | 278 | 6.0 | 14.0 | 0.00 | 0.33 | 0.33 | 95 | 1007.8 |
| 20260507034553 | 51 | 264 | 7.0 | 14.0 | 0.00 | 0.33 | 0.33 | 95 | 1007.8 |
| 20260507034049 | 51 | 230 | 3.0 | 11.0 | 0.00 | 0.33 | 0.33 | 95 | 1007.7 |
| 20260507033550 | 51 | 239 | 6.0 | 11.0 | 0.00 | 0.33 | 0.33 | 95 | 1007.6 |
| 20260507033054 | 51 | 238 | 4.0 | 14.0 | 0.01 | 0.33 | 0.33 | 95 | 1007.6 |
| 20260507032550 | 51 | 306 | 4.0 | 14.0 | 0.01 | 0.33 | 0.33 | 94 | 1007.4 |
| 20260507032050 | 52 | 270 | 4.0 | 16.0 | 0.01 | 0.33 | 0.33 | 94 | 1007.5 |
| 20260507031552 | 52 | 287 | 6.0 | 16.0 | 0.02 | 0.33 | 0.33 | 94 | 1007.4 |
| 20260507031054 | 52 | 244 | 7.0 | 16.0 | 0.02 | 0.33 | 0.33 | 94 | 1007.4 |
| 20260507030551 | 53 | 308 | 6.0 | 19.0 | 0.02 | 0.33 | 0.33 | 95 | 1007.4 |
| 20260507030055 | 53 | 297 | 5.0 | 19.0 | 0.02 | 0.33 | 0.33 | 95 | 1007.2 |
| 20260507025554 | 54 | 317 | 4.0 | 14.0 | 0.02 | 0.33 | 0.33 | 96 | 1007.1 |
| 20260507025052 | 54 | 316 | 5.0 | 14.0 | 0.02 | 0.33 | 0.33 | 96 | 1007.1 |
| 20260507024606 | 54 | 301 | 4.0 | 14.0 | 0.02 | 0.33 | 0.33 | 95 | 1007.0 |
| 20260507024050 | 54 | 311 | 5.0 | 17.0 | 0.02 | 0.33 | 0.33 | 95 | 1007.1 |
| 20260507023554 | 55 | 296 | 7.0 | 18.0 | 0.02 | 0.33 | 0.33 | 95 | 1007.2 |
| 20260507023054 | 55 | 317 | 7.0 | 18.0 | 0.01 | 0.32 | 0.32 | 96 | 1007.2 |
| 20260507022554 | 56 | 301 | 5.0 | 14.0 | 0.01 | 0.32 | 0.32 | 96 | 1007.4 |
| 20260507022050 | 56 | 197 | 6.0 | 14.0 | 0.01 | 0.32 | 0.32 | 96 | 1007.5 |
| 20260507021556 | 56 | 248 | 6.0 | 13.0 | 0.00 | 0.31 | 0.31 | 96 | 1007.3 |
| 20260507021050 | 56 | 232 | 6.0 | 13.0 | 0.00 | 0.31 | 0.31 | 96 | 1007.1 |
| 20260507020550 | 57 | 276 | 4.0 | 11.0 | 0.00 | 0.31 | 0.31 | 97 | 1007.2 |
| 20260507020107 | 57 | 239 | 4.0 | 15.0 | 0.00 | 0.31 | 0.31 | 97 | 1006.9 |
| 20260507015549 | 57 | 226 | 3.0 | 15.0 | 0.00 | 0.31 | 0.31 | 97 | 1006.8 |
| 20260507015049 | 57 | 293 | 6.0 | 15.0 | 0.00 | 0.31 | 0.31 | 97 | 1006.8 |
| 20260507014603 | 58 | 299 | 5.0 | 15.0 | 0.00 | 0.31 | 0.31 | 97 | 1006.6 |
| 20260507014050 | 58 | 253 | 7.0 | 15.0 | 0.00 | 0.31 | 0.31 | 97 | 1006.8 |
| 20260507013550 | 58 | 189 | 5.0 | 13.0 | 0.00 | 0.31 | 0.31 | 97 | 1006.9 |
| 20260507013053 | 58 | 238 | 5.0 | 13.0 | 0.00 | 0.31 | 0.31 | 97 | 1006.8 |
| 20260507012551 | 58 | 197 | 5.0 | 13.0 | 0.00 | 0.31 | 0.31 | 97 | 1006.6 |
| 20260507012050 | 58 | 259 | 7.0 | 13.0 | 0.00 | 0.31 | 0.31 | 97 | 1006.6 |
| 20260507011551 | 58 | 153 | 3.0 | 12.0 | 0.00 | 0.31 | 0.31 | 97 | 1006.5 |
| 20260507011050 | 58 | 231 | 4.0 | 12.0 | 0.00 | 0.31 | 0.31 | 97 | 1006.5 |
| 20260507010550 | 58 | 164 | 4.0 | 15.0 | 0.00 | 0.31 | 0.31 | 97 | 1006.5 |
| 20260507010053 | 58 | 275 | 6.0 | 15.0 | 0.01 | 0.31 | 0.31 | 97 | 1006.6 |
| 20260507005551 | 58 | 223 | 6.0 | 15.0 | 0.01 | 0.31 | 0.31 | 97 | 1006.6 |
| 20260507005049 | 58 | 278 | 4.0 | 9.0 | 0.01 | 0.31 | 0.31 | 97 | 1006.6 |
| 20260507004601 | 58 | 202 | 4.0 | 10.0 | 0.01 | 0.31 | 0.31 | 97 | 1006.6 |
| 20260507004051 | 58 | 180 | 3.0 | 13.0 | 0.01 | 0.31 | 0.31 | 97 | 1006.6 |
| 20260507003551 | 58 | 190 | 5.0 | 13.0 | 0.01 | 0.31 | 0.31 | 97 | 1006.5 |
| 20260507003055 | 58 | 197 | 5.0 | 13.0 | 0.01 | 0.31 | 0.31 | 97 | 1006.4 |
| 20260507002549 | 58 | 199 | 4.0 | 11.0 | 0.01 | 0.31 | 0.31 | 97 | 1006.3 |
| 20260507002050 | 58 | 216 | 4.0 | 11.0 | 0.01 | 0.31 | 0.31 | 97 | 1006.3 |
| 20260507001602 | 58 | 229 | 3.0 | 9.0 | 0.01 | 0.31 | 0.31 | 97 | 1006.3 |
| 20260507001049 | 58 | 218 | 4.0 | 10.0 | 0.01 | 0.31 | 0.31 | 97 | 1006.3 |
| 20260507000550 | 58 | 189 | 4.0 | 12.0 | 0.01 | 0.31 | 0.31 | 97 | 1006.1 |
| 20260507000054 | 58 | 209 | 3.0 | 12.0 | 0.00 | 0.30 | 0.30 | 97 | 1006.2 |
| 20260506235550 | 58 | 159 | 5.0 | 12.0 | 0.00 | 0.30 | 0.30 | 97 | 1006.2 |
| 20260506235051 | 58 | 180 | 5.0 | 12.0 | 0.00 | 0.30 | 0.30 | 97 | 1006.3 |
| 20260506234602 | 58 | 189 | 4.0 | 11.0 | 0.00 | 0.30 | 0.30 | 97 | 1006.3 |
| 20260506234050 | 58 | 202 | 5.0 | 11.0 | 0.00 | 0.30 | 0.30 | 97 | 1006.1 |
| 20260506233554 | 58 | 218 | 5.0 | 10.0 | 0.00 | 0.30 | 0.30 | 97 | 1006.1 |
| 20260506233059 | 58 | 229 | 4.0 | 14.0 | 0.01 | 0.30 | 0.30 | 97 | 1006.0 |
| 20260506232549 | 58 | 141 | 5.0 | 14.0 | 0.01 | 0.30 | 0.30 | 97 | 1006.0 |
| 20260506232048 | 58 | 210 | 8.0 | 14.0 | 0.02 | 0.30 | 0.30 | 97 | 1005.9 |
| 20260506231558 | 58 | 202 | 6.0 | 13.0 | 0.02 | 0.30 | 0.30 | 97 | 1005.9 |
| 20260506231051 | 58 | 195 | 5.0 | 12.0 | 0.02 | 0.30 | 0.30 | 97 | 1005.9 |
| 20260506230551 | 58 | 193 | 5.0 | 12.0 | 0.02 | 0.30 | 0.30 | 97 | 1006.0 |
| 20260506230059 | 58 | 165 | 5.0 | 10.0 | 0.02 | 0.30 | 0.30 | 97 | 1005.9 |
| 20260506225549 | 58 | 202 | 4.0 | 10.0 | 0.02 | 0.30 | 0.30 | 97 | 1006.0 |
| 20260506225050 | 58 | 204 | 5.0 | 17.0 | 0.02 | 0.30 | 0.30 | 97 | 1006.1 |
| 20260506224551 | 58 | 170 | 6.0 | 17.0 | 0.03 | 0.30 | 0.30 | 96 | 1006.0 |
| 20260506224049 | 58 | 165 | 4.0 | 13.0 | 0.03 | 0.30 | 0.30 | 96 | 1006.1 |
| 20260506223552 | 58 | 154 | 6.0 | 17.0 | 0.03 | 0.30 | 0.30 | 96 | 1006.2 |
| 20260506223056 | 58 | 189 | 5.0 | 17.0 | 0.03 | 0.29 | 0.29 | 96 | 1006.2 |
| 20260506222550 | 58 | 202 | 6.0 | 16.0 | 0.02 | 0.28 | 0.28 | 96 | 1006.2 |
| 20260506222050 | 58 | 222 | 6.0 | 15.0 | 0.02 | 0.28 | 0.28 | 96 | 1006.2 |
| 20260506221553 | 58 | 203 | 8.0 | 15.0 | 0.03 | 0.28 | 0.28 | 96 | 1006.1 |
| 20260506221049 | 58 | 172 | 6.0 | 14.0 | 0.03 | 0.28 | 0.28 | 96 | 1006.1 |
| 20260506220550 | 58 | 218 | 9.0 | 14.0 | 0.04 | 0.28 | 0.28 | 96 | 1006.2 |
| 20260506220056 | 58 | 189 | 6.0 | 14.0 | 0.05 | 0.28 | 0.28 | 96 | 1006.3 |
| 20260506215550 | 58 | 210 | 6.0 | 17.0 | 0.06 | 0.28 | 0.28 | 96 | 1006.3 |
| 20260506215049 | 58 | 209 | 6.0 | 17.0 | 0.06 | 0.28 | 0.28 | 96 | 1006.3 |
| 20260506214555 | 58 | 0 | 7.0 | 13.0 | 0.05 | 0.27 | 0.27 | 96 | 1006.2 |
| 20260506214050 | 58 | 180 | 7.0 | 13.0 | 0.06 | 0.27 | 0.27 | 96 | 1006.4 |
| 20260506213549 | 58 | 171 | 6.0 | 14.0 | 0.07 | 0.27 | 0.27 | 96 | 1006.4 |
| 20260506213104 | 58 | 166 | 7.0 | 18.0 | 0.07 | 0.26 | 0.26 | 96 | 1006.5 |
| 20260506212551 | 58 | 172 | 7.0 | 18.0 | 0.09 | 0.26 | 0.26 | 96 | 1006.5 |
| 20260506212051 | 58 | 189 | 7.0 | 16.0 | 0.11 | 0.26 | 0.26 | 96 | 1006.3 |
| 20260506211604 | 58 | 164 | 6.0 | 17.0 | 0.11 | 0.25 | 0.25 | 96 | 1006.3 |
| 20260506211050 | 58 | 189 | 6.0 | 17.0 | 0.11 | 0.25 | 0.25 | 96 | 1006.5 |
| 20260506210551 | 58 | 172 | 8.0 | 17.0 | 0.11 | 0.24 | 0.24 | 96 | 1006.5 |
| 20260506210055 | 58 | 172 | 7.0 | 15.0 | 0.11 | 0.23 | 0.23 | 96 | 1006.4 |
| 20260506205550 | 58 | 201 | 7.0 | 14.0 | 0.10 | 0.22 | 0.22 | 96 | 1006.5 |
| 20260506205050 | 58 | 180 | 6.0 | 14.0 | 0.11 | 0.22 | 0.22 | 96 | 1006.7 |
| 20260506204557 | 58 | 204 | 5.0 | 17.0 | 0.12 | 0.22 | 0.22 | 96 | 1006.6 |
| 20260506204049 | 58 | 171 | 7.0 | 17.0 | 0.12 | 0.21 | 0.21 | 96 | 1006.8 |
| 20260506203549 | 58 | 189 | 8.0 | 17.0 | 0.11 | 0.20 | 0.20 | 96 | 1006.7 |
| 20260506203053 | 58 | 189 | 9.0 | 15.0 | 0.11 | 0.19 | 0.19 | 96 | 1006.8 |
| 20260506202550 | 59 | 172 | 6.0 | 15.0 | 0.09 | 0.17 | 0.17 | 96 | 1006.9 |
| 20260506202054 | 59 | 191 | 4.0 | 15.0 | 0.07 | 0.15 | 0.15 | 96 | 1007.0 |
| 20260506201600 | 59 | 189 | 5.0 | 15.0 | 0.06 | 0.14 | 0.14 | 96 | 1007.0 |
| 20260506201049 | 59 | 266 | 4.0 | 15.0 | 0.06 | 0.14 | 0.14 | 96 | 1007.0 |
| 20260506200550 | 59 | 156 | 7.0 | 15.0 | 0.05 | 0.13 | 0.13 | 95 | 1007.1 |
| 20260506200058 | 59 | 162 | 8.0 | 14.0 | 0.05 | 0.12 | 0.12 | 95 | 1007.0 |
| 20260506195549 | 59 | 205 | 6.0 | 15.0 | 0.04 | 0.11 | 0.11 | 95 | 1007.0 |
| 20260506195050 | 59 | 193 | 6.0 | 15.0 | 0.04 | 0.11 | 0.11 | 95 | 1007.1 |
| 20260506194604 | 59 | 180 | 4.0 | 12.0 | 0.03 | 0.10 | 0.10 | 95 | 1007.2 |
| 20260506194052 | 59 | 159 | 5.0 | 12.0 | 0.02 | 0.09 | 0.09 | 95 | 1007.4 |
| 20260506193552 | 59 | 194 | 5.0 | 16.0 | 0.02 | 0.09 | 0.09 | 95 | 1007.3 |
| 20260506193053 | 59 | 197 | 6.0 | 16.0 | 0.02 | 0.08 | 0.08 | 95 | 1007.3 |
| 20260506192551 | 60 | 189 | 9.0 | 16.0 | 0.02 | 0.08 | 0.08 | 94 | 1007.4 |
| 20260506192054 | 60 | 166 | 6.0 | 14.0 | 0.02 | 0.08 | 0.08 | 94 | 1007.3 |
| 20260506191553 | 60 | 206 | 7.0 | 13.0 | 0.02 | 0.08 | 0.08 | 94 | 1007.4 |
| 20260506191050 | 60 | 209 | 6.0 | 10.0 | 0.03 | 0.08 | 0.08 | 95 | 1007.4 |
| 20260506190550 | 60 | 170 | 5.0 | 15.0 | 0.03 | 0.08 | 0.08 | 94 | 1007.4 |
| 20260506190056 | 60 | 191 | 6.0 | 15.0 | 0.03 | 0.07 | 0.07 | 94 | 1007.5 |
| 20260506185549 | 60 | 220 | 4.0 | 15.0 | 0.03 | 0.07 | 0.07 | 94 | 1007.3 |
| 20260506185050 | 60 | 93 | 8.0 | 15.0 | 0.04 | 0.07 | 0.07 | 94 | 1007.1 |
| 20260506184605 | 60 | 222 | 4.0 | 13.0 | 0.04 | 0.07 | 0.07 | 94 | 1007.2 |
| 20260506184050 | 60 | 204 | 5.0 | 13.0 | 0.05 | 0.07 | 0.07 | 94 | 1007.3 |
| 20260506183550 | 60 | 172 | 4.0 | 14.0 | 0.06 | 0.07 | 0.07 | 94 | 1007.6 |
| 20260506183100 | 60 | 189 | 3.0 | 14.0 | 0.05 | 0.06 | 0.06 | 93 | 1007.6 |
| 20260506182549 | 60 | 180 | 7.0 | 14.0 | 0.06 | 0.06 | 0.06 | 93 | 1007.7 |
| 20260506182052 | 60 | 194 | 6.0 | 13.0 | 0.06 | 0.06 | 0.06 | 92 | 1007.8 |
| 20260506181551 | 60 | 189 | 5.0 | 12.0 | 0.06 | 0.06 | 0.06 | 92 | 1007.9 |
| 20260506181051 | 60 | 172 | 5.0 | 12.0 | 0.05 | 0.05 | 0.05 | 92 | 1008.0 |
| 20260506180550 | 60 | 166 | 4.0 | 10.0 | 0.05 | 0.05 | 0.05 | 92 | 1008.1 |
| 20260506180055 | 61 | 189 | 3.0 | 9.0 | 0.04 | 0.04 | 0.04 | 91 | 1008.2 |
| 20260506175551 | 61 | 191 | 4.0 | 9.0 | 0.04 | 0.04 | 0.04 | 90 | 1008.5 |
| 20260506175049 | 61 | 170 | 5.0 | 17.0 | 0.03 | 0.03 | 0.03 | 90 | 1008.6 |
| 20260506174551 | 61 | 233 | 4.0 | 17.0 | 0.03 | 0.03 | 0.03 | 88 | 1008.5 |
| 20260506174053 | 62 | 189 | 4.0 | 12.0 | 0.02 | 0.02 | 0.02 | 86 | 1008.8 |
| 20260506173550 | 62 | 169 | 4.0 | 15.0 | 0.01 | 0.01 | 0.01 | 85 | 1008.7 |
| 20260506173054 | 63 | 194 | 4.0 | 18.0 | 0.01 | 0.01 | 0.01 | 82 | 1008.8 |
| 20260506172553 | 64 | 228 | 5.0 | 18.0 | 0.00 | 0.00 | 0.00 | 80 | 1008.7 |
| 20260506172050 | 65 | 232 | 6.0 | 16.0 | 0.00 | 0.00 | 0.00 | 76 | 1008.6 |
| 20260506171558 | 65 | 131 | 6.0 | 19.0 | 0.00 | 0.00 | 0.00 | 75 | 1008.6 |
| 20260506171053 | 66 | 199 | 8.0 | 19.0 | 0.00 | 0.00 | 0.00 | 74 | 1008.5 |
| 20260506170549 | 66 | 166 | 9.0 | 18.0 | 0.00 | 0.00 | 0.00 | 72 | 1008.5 |
| 20260506170112 | 67 | 205 | 5.0 | 15.0 | 0.00 | 0.00 | 0.00 | 70 | 1008.6 |
| 20260506165553 | 67 | 161 | 6.0 | 24.0 | 0.00 | 0.00 | 0.00 | 71 | 1008.6 |
| 20260506165051 | 67 | 213 | 9.0 | 24.0 | 0.00 | 0.00 | 0.00 | 71 | 1008.6 |
| 20260506164556 | 67 | 213 | 11.0 | 24.0 | 0.00 | 0.00 | 0.00 | 71 | 1008.7 |
| 20260506164049 | 66 | 194 | 8.0 | 21.0 | 0.00 | 0.00 | 0.00 | 72 | 1008.7 |
| 20260506163553 | 66 | 166 | 8.0 | 19.0 | 0.00 | 0.00 | 0.00 | 72 | 1008.7 |
| 20260506163110 | 66 | 223 | 6.0 | 19.0 | 0.00 | 0.00 | 0.00 | 72 | 1008.9 |
| 20260506162550 | 66 | 224 | 7.0 | 19.0 | 0.00 | 0.00 | 0.00 | 71 | 1008.8 |
| 20260506162050 | 66 | 190 | 6.0 | 13.0 | 0.00 | 0.00 | 0.00 | 72 | 1008.9 |
| 20260506161601 | 66 | 161 | 4.0 | 16.0 | 0.00 | 0.00 | 0.00 | 74 | 1009.0 |
| 20260506161049 | 66 | 212 | 8.0 | 16.0 | 0.00 | 0.00 | 0.00 | 72 | 1009.1 |
| 20260506160550 | 66 | 172 | 7.0 | 20.0 | 0.00 | 0.00 | 0.00 | 72 | 1009.1 |
| 20260506160109 | 66 | 189 | 5.0 | 20.0 | 0.00 | 0.00 | 0.00 | 72 | 1009.1 |
| 20260506155549 | 67 | 199 | 6.0 | 14.0 | 0.00 | 0.00 | 0.00 | 71 | 1009.3 |
| 20260506155053 | 67 | 280 | 3.0 | 13.0 | 0.00 | 0.00 | 0.00 | 72 | 1009.2 |
| 20260506154604 | 67 | 196 | 4.0 | 13.0 | 0.00 | 0.00 | 0.00 | 70 | 1009.3 |
| 20260506154051 | 67 | 217 | 6.0 | 15.0 | 0.00 | 0.00 | 0.00 | 70 | 1009.6 |
| 20260506153550 | 67 | 170 | 4.0 | 15.0 | 0.00 | 0.00 | 0.00 | 72 | 1009.4 |
| 20260506153105 | 67 | 213 | 6.0 | 15.0 | 0.00 | 0.00 | 0.00 | 72 | 1009.4 |
| 20260506152613 | 67 | 197 | 5.0 | 12.0 | 0.00 | 0.00 | 0.00 | 71 | 1009.6 |
| 20260506152050 | 67 | 191 | 4.0 | 14.0 | 0.00 | 0.00 | 0.00 | 72 | 1009.4 |
| 20260506151555 | 67 | 229 | 6.0 | 16.0 | 0.00 | 0.00 | 0.00 | 72 | 1009.6 |
| 20260506151053 | 67 | 164 | 6.0 | 16.0 | 0.00 | 0.00 | 0.00 | 72 | 1009.8 |
| 20260506150550 | 67 | 160 | 6.0 | 16.0 | 0.00 | 0.00 | 0.00 | 71 | 1009.7 |
| 20260506150053 | 67 | 216 | 6.0 | 16.0 | 0.00 | 0.00 | 0.00 | 72 | 1009.7 |
| 20260506145550 | 67 | 150 | 7.0 | 16.0 | 0.00 | 0.00 | 0.00 | 71 | 1009.9 |
| 20260506145054 | 68 | 166 | 9.0 | 16.0 | 0.00 | 0.00 | 0.00 | 71 | 1009.8 |
| 20260506144602 | 68 | 228 | 8.0 | 17.0 | 0.00 | 0.00 | 0.00 | 71 | 1009.5 |
| 20260506144049 | 68 | 209 | 4.0 | 17.0 | 0.00 | 0.00 | 0.00 | 73 | 1009.5 |
| 20260506143550 | 68 | 218 | 9.0 | 17.0 | 0.00 | 0.00 | 0.00 | 70 | 1009.5 |
| 20260506143103 | 67 | 220 | 7.0 | 13.0 | 0.00 | 0.00 | 0.00 | 72 | 1009.7 |
| 20260506142549 | 67 | 222 | 6.0 | 15.0 | 0.00 | 0.00 | 0.00 | 71 | 1009.7 |
| 20260506142052 | 67 | 210 | 5.0 | 15.0 | 0.00 | 0.00 | 0.00 | 73 | 1009.7 |
| 20260506141554 | 67 | 197 | 5.0 | 19.0 | 0.00 | 0.00 | 0.00 | 74 | 1009.8 |
| 20260506141051 | 66 | 172 | 5.0 | 19.0 | 0.00 | 0.00 | 0.00 | 74 | 1009.5 |
| 20260506140551 | 66 | 217 | 7.0 | 18.0 | 0.00 | 0.00 | 0.00 | 75 | 1009.6 |
| 20260506140054 | 66 | 180 | 8.0 | 18.0 | 0.00 | 0.00 | 0.00 | 75 | 1009.6 |
| 20260506135550 | 65 | 206 | 8.0 | 17.0 | 0.00 | 0.00 | 0.00 | 76 | 1009.4 |
| 20260506135049 | 65 | 149 | 8.0 | 17.0 | 0.00 | 0.00 | 0.00 | 76 | 1009.3 |
| 20260506134556 | 65 | 180 | 5.0 | 14.0 | 0.00 | 0.00 | 0.00 | 78 | 1009.3 |
| 20260506134050 | 64 | 170 | 8.0 | 14.0 | 0.00 | 0.00 | 0.00 | 78 | 1009.5 |
| 20260506133550 | 64 | 217 | 7.0 | 13.0 | 0.00 | 0.00 | 0.00 | 79 | 1009.6 |
| 20260506133054 | 64 | 208 | 5.0 | 13.0 | 0.00 | 0.00 | 0.00 | 78 | 1009.6 |
| 20260506132549 | 64 | 189 | 7.0 | 12.0 | 0.00 | 0.00 | 0.00 | 79 | 1009.8 |
| 20260506132052 | 63 | 166 | 5.0 | 13.0 | 0.00 | 0.00 | 0.00 | 80 | 1009.8 |
| 20260506131552 | 63 | 189 | 5.0 | 14.0 | 0.00 | 0.00 | 0.00 | 79 | 1009.8 |
| 20260506131050 | 63 | 189 | 4.0 | 14.0 | 0.00 | 0.00 | 0.00 | 79 | 1009.9 |
| 20260506130550 | 64 | 202 | 6.0 | 13.0 | 0.00 | 0.00 | 0.00 | 79 | 1009.9 |
| 20260506130059 | 64 | 172 | 5.0 | 13.0 | 0.00 | 0.00 | 0.00 | 79 | 1009.9 |
| 20260506125552 | 64 | 210 | 5.0 | 13.0 | 0.00 | 0.00 | 0.00 | 79 | 1010.0 |
| 20260506125049 | 63 | 256 | 4.0 | 15.0 | 0.00 | 0.00 | 0.00 | 79 | 1010.0 |
| 20260506124552 | 63 | 224 | 7.0 | 17.0 | 0.00 | 0.00 | 0.00 | 79 | 1010.0 |
| 20260506124049 | 63 | 225 | 5.0 | 18.0 | 0.00 | 0.00 | 0.00 | 79 | 1010.0 |
| 20260506123549 | 63 | 209 | 8.0 | 18.0 | 0.00 | 0.00 | 0.00 | 80 | 1009.9 |
| 20260506123055 | 63 | 208 | 8.0 | 16.0 | 0.00 | 0.00 | 0.00 | 80 | 1010.1 |
| 20260506122549 | 63 | 221 | 7.0 | 16.0 | 0.00 | 0.00 | 0.00 | 80 | 1009.9 |
| 20260506122051 | 63 | 162 | 5.0 | 18.0 | 0.00 | 0.00 | 0.00 | 81 | 1009.8 |
| 20260506121557 | 63 | 234 | 8.0 | 18.0 | 0.00 | 0.00 | 0.00 | 81 | 1009.9 |
| 20260506121052 | 62 | 172 | 6.0 | 13.0 | 0.00 | 0.00 | 0.00 | 82 | 1009.8 |
| 20260506120552 | 62 | 210 | 6.0 | 17.0 | 0.00 | 0.00 | 0.00 | 83 | 1009.9 |
| 20260506120056 | 61 | 162 | 8.0 | 17.0 | 0.00 | 0.00 | 0.00 | 83 | 1009.9 |
| 20260506115552 | 61 | 195 | 6.0 | 21.0 | 0.00 | 0.00 | 0.00 | 83 | 1010.3 |
| 20260506115051 | 61 | 200 | 5.0 | 21.0 | 0.00 | 0.00 | 0.00 | 83 | 1010.2 |
| 20260506114557 | 61 | 251 | 9.0 | 21.0 | 0.00 | 0.00 | 0.00 | 83 | 1010.1 |
| 20260506114051 | 61 | 208 | 6.0 | 17.0 | 0.00 | 0.00 | 0.00 | 84 | 1010.1 |
| 20260506113551 | 60 | 166 | 6.0 | 20.0 | 0.00 | 0.00 | 0.00 | 84 | 1010.1 |
| 20260506113054 | 60 | 229 | 9.0 | 20.0 | 0.00 | 0.00 | 0.00 | 84 | 1010.3 |
| 20260506112554 | 60 | 212 | 5.0 | 15.0 | 0.00 | 0.00 | 0.00 | 84 | 1010.4 |
| 20260506112052 | 60 | 232 | 5.0 | 13.0 | 0.00 | 0.00 | 0.00 | 84 | 1010.3 |